This demonstration page uses our WeatherBlox Daily Observations layout. Learn more.

Left ArrowRight Arrow

44.89941, -97.11507

Hourly Observations for January 30, 2021

Temp ( °F °C ) Dew Point ( °F °C ) Humidity (%) Winds ( mph kmh ) Pressure ( in mb ) Visibility ( mi km ) Precip ( " mm )
12:35 am 00:35 Cloudy with Mist and Fog 23 -5 23 -5 100 100 ESE 7 11 29.90 1012 2 3 0.00 0.00
12:53 am 00:53 Cloudy with Mist and Fog 24 -4.4 23 -5 96 96 ESE 7 11 29.84 1011 3 4 0.00 0.00
1:27 am 01:27 Cloudy with Mist and Fog 23 -5 22 -5.6 96 96 ESE 8 13 29.88 1012 3 4 0.00 0.00
1:53 am 01:53 Cloudy with Mist and Fog 23 -5 22 -5.6 96 96 ESE 7 11 29.82 1010 3 5 0.00 0.00
2:53 am 02:53 Cloudy with Mist and Fog 23 -5 22 -5.6 96 96 ESE 8 13 29.81 1010 3 5 0.00 0.00
3:53 am 03:53 Cloudy with Mist and Fog 23 -5 22 -5.6 96 96 E 6 9 29.81 1010 3 5 0.00 0.00
4:53 am 04:53 Cloudy with Mist and Fog 23 -5 22 -5.6 96 96 ESE 12 19 29.81 1009 3 5 0.00 0.00
5:53 am 05:53 Cloudy with Mist and Fog 23 -5 22 -5.6 96 96 E 7 11 29.80 1009 3 5 0.00 0.00
6:53 am 06:53 Cloudy with Mist and Fog 23 -5 22 -5.6 96 96 E 9 15 29.81 1010 3 5 0.00 0.00
7:34 am 07:34 Cloudy with Mist and Fog 23 -5 22 -5.6 96 96 E 7 11 29.87 1011 3 4 0.00 0.00
7:53 am 07:53 Cloudy with Mist and Fog 23 -5 22 -5.6 96 96 ENE 7 11 29.83 1010 3 4 0.00 0.00
8:09 am 08:09 Cloudy with Mist and Fog 23 -5 22 -5.6 96 96 ENE 7 11 29.88 1012 2 3 0.00 0.00
8:23 am 08:23 Cloudy with Mist and Fog 23 -5 22 -5.6 96 96 ENE 7 11 29.88 1012 1 2 0.00 0.00
8:53 am 08:53 Cloudy with Mist and Fog 23 -5 22 -5.6 96 96 E 10 17 29.84 1010 1 2 0.00 0.00
9:53 am 09:53 Cloudy with Mist and Fog 23 -5 22 -5.6 96 96 E 12 19 29.84 1011 1 2 0.00 0.00
10:53 am 10:53 Cloudy with Mist and Fog 24 -4.4 23 -5 96 96 E 13 20 29.86 1011 1 2 0.00 0.00
11:34 am 11:34 Cloudy with Mist and Fog 24 -4.4 23 -5 96 96 E 9 15 29.91 1013 2 2 0.00 0.00
11:53 am 11:53 Cloudy with Mist and Fog 25 -3.9 23 -5 92 92 E 9 15 29.87 1012 2 2 0.00 0.00
12:32 pm 12:32 Cloudy with Mist and Fog 25 -3.9 23 -5 92 92 E 10 17 29.92 1013 2 2 0.00 0.00
12:53 pm 12:53 Cloudy with Mist and Fog 25 -3.9 23 -5 92 92 E 10 17 29.88 1012 2 2 0.00 0.00
1:11 pm 13:11 Cloudy with Mist and Fog 25 -3.9 24 -4.4 96 96 E 7 11 29.92 1013 2 2 0.00 0.00
1:51 pm 13:51 Cloudy with Mist and Fog 25 -4 23 -5 93 93 NE 7 11 29.93 1013 2 2 0.00 0.00
1:53 pm 13:53 Cloudy with Mist and Fog 25 -3.9 23 -5 92 92 NNE 8 13 29.89 1012 2 2 0.00 0.00
2:17 pm 14:17 Cloudy with Mist and Fog 25 -3.9 23 -5 92 92 NNE 8 13 29.94 1014 2 2 0.00 0.00
2:30 pm 14:30 Cloudy with Mist and Fog 25 -3.9 23 -5 92 92 NNE 7 11 29.94 1014 2 2 0.00 0.00
2:53 pm 14:53 Cloudy with Mist and Fog 25 -3.9 23 -5 92 92 NE 9 15 29.91 1013 2 3 0.00 0.00
3:53 pm 15:53 Cloudy with Mist and Fog 25 -3.9 23 -5 92 92 NNE 12 19 29.94 1014 2 2 0.00 0.00
4:53 pm 16:53 Cloudy with Mist and Fog 25 -3.9 23 -5 92 92 NE 10 17 29.96 1015 2 3 0.00 0.00
5:32 pm 17:32 Cloudy with Mist and Fog 25 -3.9 23 -5 92 92 NNE 14 22 30.02 1017 3 4 0.00 0.00
5:53 pm 17:53 Cloudy with Mist and Fog 25 -3.9 23 -5 92 92 N 12 19 30.00 1016 3 4 0.00 0.00
6:03 pm 18:03 Cloudy with Mist and Fog 25 -3.9 23 -5 92 92 N 12 19 30.04 1017 3 5 0.00 0.00
6:53 pm 18:53 Cloudy with Mist and Fog 25 -3.9 23 -5 92 92 NNE 13 20 30.03 1017 3 5 0.00 0.00
7:53 pm 19:53 Cloudy with Mist and Fog 24 -4.4 23 -5 96 96 N 12 19 30.05 1018 3 5 0.00 0.00
8:23 pm 20:23 Cloudy with Mist and Fog 24 -4.4 22 -5.6 91 91 N 12 19 30.10 1019 3 4 0.00 0.00
8:53 pm 20:53 Cloudy with Mist and Fog 24 -4.4 23 -5 96 96 N 12 19 30.07 1018 2 3 0.00 0.00
9:37 pm 21:37 Cloudy with Mist and Fog 24 -4.4 23 -5 96 96 N 10 17 30.12 1020 2 3 0.00 0.00
9:53 pm 21:53 Cloudy with Mist and Fog 24 -4.4 23 -5 96 96 N 12 19 30.09 1019 2 3 0.00 0.00
10:07 pm 22:07 Cloudy with Mist and Fog 24 -4.4 22 -5.6 91 91 N 14 22 30.13 1020 2 3 0.00 0.00
10:53 pm 22:53 Cloudy with Mist and Fog 23 -5 23 -5 100 100 N 12 19 30.11 1020 2 2 0.00 0.00
11:53 pm 23:53 Cloudy with Mist and Fog 23 -5 22 -5.6 96 96 NNW 13 20 30.13 1020 2 2 0.00 0.00

Powered by AerisWeather